Weather History for Bangor, ME

Change the Weather History Date:

Thursday, February 21, 2013

  Actual Average Record
Temperature  
Mean Temperature 28 °F 22 °F  
Max Temperature 34 °F 33 °F 60 °F (1937)
Min Temperature 21 °F 12 °F -15 °F (1929)
Degree Days  
Heating Degree Days 37 43  
Month to date heating degree days 913 949  
Since 1 July heating degree days 5129 5356  
Cooling Degree Days 0 0  
Month to date cooling degree days 0 0  
Year to date cooling degree days 0 0  
Moisture  
Dew Point 18 °F    
Average Humidity 69    
Maximum Humidity 81    
Minimum Humidity 57    
Precipitation  
Precipitation T in 0.09 in 0.80 in (1986)
Month to date precipitation 1.84 1.85  
Year to date precipitation 2.71 4.74  
Snow  
Snow T in 0.50 in 16.10 in (1947)
Month to date snowfall 30.0 11.3  
Since 1 July snowfall 55.6 47.3  
Snow Depth 6.00 in    
Sea Level Pressure  
Sea Level Pressure 29.78 in    
Wind  
Wind Speed 11 mph (NW)    
Max Wind Speed 28 mph    
Max Gust Speed 37 mph    
Visibility 9 miles    
Events Snow    
T = Trace of Precipitation, MM = Missing Value Source: NWS Daily Summary

Daily Weather History Graph

Daily Weather History Graph

Search for Another Location

Airport:

Trip Planner

Search our weather history database for the weather conditions in past years. The results will help you decide how hot, cold, wet, or windy it might be!

Date:

Astronomy

Feb. 21, 2013 Rise Set
Actual Time 6:26 AM EST 5:12 PM EST
Civil Twilight 5:56 AM EST 5:42 PM EST
Nautical Twilight 5:22 AM EST 6:16 PM EST
Astronomical Twilight 4:48 AM EST 6:49 PM EST
Moon 1:17 PM EST (2/21) 3:35 AM EST (2/21)
Length of Visible Light 11h 45m
Length of Day
10h 46m
Waxing Gibbous, 83% of the Moon is Illuminated
Feb 21
Waxing Gibbous
Feb 25
Full
Mar 4
Last Quarter
Mar 11
New
Mar 19
First Quarter

Hourly Weather History & Observations

Time (EST) Temp. Windchill Dew Point Humidity Pressure Visibility Wind Dir Wind Speed Gust Speed Precip Events Conditions
12:53 AM 27.0 °F 19.5 °F 15.1 °F 61% 29.58 in 10.0 mi West 6.9 mph - N/A   Overcast
1:53 AM 27.0 °F 19.5 °F 15.1 °F 61% 29.60 in 10.0 mi West 6.9 mph - N/A   Overcast
2:53 AM 26.1 °F 18.4 °F 14.0 °F 60% 29.60 in 10.0 mi West 6.9 mph 20.7 mph N/A   Overcast
3:53 AM 25.0 °F 17.1 °F 12.9 °F 60% 29.61 in 10.0 mi West 6.9 mph - N/A   Mostly Cloudy
4:53 AM 23.0 °F 13.1 °F 10.9 °F 60% 29.64 in 10.0 mi WNW 9.2 mph 19.6 mph N/A   Mostly Cloudy
5:53 AM 21.9 °F 11.7 °F 10.0 °F 60% 29.65 in 10.0 mi WNW 9.2 mph 17.3 mph N/A   Mostly Cloudy
6:53 AM 21.0 °F 10.6 °F 10.0 °F 63% 29.67 in 10.0 mi WNW 9.2 mph - N/A   Mostly Cloudy
7:53 AM 21.0 °F 9.9 °F 10.9 °F 65% 29.70 in 10.0 mi NW 10.4 mph - N/A   Mostly Cloudy
8:53 AM 21.9 °F 11.0 °F 10.9 °F 63% 29.71 in 10.0 mi NW 10.4 mph 16.1 mph N/A   Mostly Cloudy
9:53 AM 23.0 °F 11.7 °F 12.0 °F 63% 29.71 in 10.0 mi WNW 11.5 mph 19.6 mph 0.00 in Snow Light Snow
10:53 AM 21.9 °F 10.4 °F 12.0 °F 66% 29.73 in 10.0 mi WNW 11.5 mph 17.3 mph 0.00 in Snow Light Snow
11:53 AM 23.0 °F 11.1 °F 12.9 °F 65% 29.73 in 10.0 mi NW 12.7 mph 19.6 mph 0.00 in Snow Light Snow
12:53 PM 24.1 °F 11.5 °F 15.1 °F 69% 29.73 in 4.0 mi NW 15.0 mph 23.0 mph 0.00 in Snow Light Snow
1:53 PM 25.0 °F 13.6 °F 17.1 °F 72% 29.73 in 5.0 mi WNW 12.7 mph - 0.00 in Snow Light Snow
2:15 PM 24.8 °F 14.0 °F 19.4 °F 80% 29.72 in 2.5 mi NW 11.5 mph - 0.00 in Snow Light Snow
2:53 PM 26.1 °F 14.0 °F 19.9 °F 78% 29.75 in 2.0 mi NW 15.0 mph - 0.00 in Snow Light Snow
3:53 PM 27.0 °F 15.6 °F 21.9 °F 81% 29.77 in 3.0 mi NW 13.8 mph - 0.00 in Snow Light Snow
4:53 PM 28.9 °F 17.7 °F 23.0 °F 78% 29.81 in 10.0 mi NW 15.0 mph - 0.00 in   Overcast
5:53 PM 33.1 °F 22.2 °F 27.0 °F 78% 29.86 in 10.0 mi North 17.3 mph 25.3 mph 0.00 in Snow Light Snow
6:00 PM 32.0 °F 21.2 °F 26.6 °F 80% 29.86 in 9.0 mi North 16.1 mph - 0.00 in Snow Light Snow
6:53 PM 34.0 °F 22.7 °F 27.0 °F 75% 29.91 in 9.0 mi North 19.6 mph 34.5 mph 0.00 in Snow Light Snow
7:53 PM 34.0 °F 21.8 °F 26.1 °F 73% 29.96 in 9.0 mi North 23.0 mph 32.2 mph 0.00 in   Overcast
8:53 PM 33.1 °F 20.9 °F 24.1 °F 70% 30.01 in 10.0 mi North 21.9 mph 33.4 mph 0.00 in   Overcast
9:53 PM 32.0 °F 19.8 °F 24.1 °F 73% 30.05 in 10.0 mi North 20.7 mph 29.9 mph N/A   Mostly Cloudy
10:53 PM 32.0 °F 20.8 °F 23.0 °F 69% 30.09 in 10.0 mi North 17.3 mph 28.8 mph N/A   Overcast
11:53 PM 30.9 °F 18.1 °F 21.9 °F 69% 30.12 in 10.0 mi North 21.9 mph 29.9 mph N/A   Mostly Cloudy